Lake Hood, AK

5:48 AM AKDT on August 19, 2017 (GMT -0800)
Lake Hood

Weather History for PALH - December, 2012

Change the Weather History Date:

Tuesday, December 4, 2012

  Actual Average Record
Temperature  
Mean Temperature 4 °F -  
Max Temperature 8 °F 22 °F 48 °F (2011)
Min Temperature -2 °F 12 °F -6 °F (2001)
Degree Days  
Heating Degree Days 61    
Moisture  
Dew Point -12 °F    
Average Humidity 51    
Maximum Humidity 72    
Minimum Humidity 44    
Precipitation  
Precipitation 0.00 in - - ()
Sea Level Pressure  
Sea Level Pressure 29.52 in    
Wind  
Wind Speed 10 mph (North)    
Max Wind Speed 14 mph    
Max Gust Speed 21 mph    
Visibility 10 miles    
Events      
Averages and records for this station are not official NWS values.
T = Trace of Precipitation, MM = Missing Value Source: NWS Daily Summary

Daily Weather History Graph

Daily Weather History Graph

Search for Another Location

Airport or City:

Trip Planner

Search our weather history database for the weather conditions in past years. The results will help you decide how hot, cold, wet, or windy it might be!

Date:

Astronomy

Dec. 04, 2012 Rise Set
Actual Time 9:52 AM AKST 3:47 PM AKST
Civil Twilight 8:53 AM AKST 4:46 PM AKST
Nautical Twilight 7:55 AM AKST 5:44 PM AKST
Astronomical Twilight 7:02 AM AKST 6:37 PM AKST
Moon 11:02 PM AKST (12/4) 12:42 PM AKST (12/4)
Length of Visible Light 7h 52m
Length of Day
5h 54m
Waning Gibbous, 68% of the Moon is Illuminated
Dec 4
Waning Gibbous
Dec 6
Last Quarter
Dec 12
New
Dec 19
First Quarter
Dec 28
Full

Hourly Weather History & Observations

Time (AKST) Temp. Windchill Dew Point Humidity Pressure Visibility Wind Dir Wind Speed Gust Speed Precip Events Conditions
12:53 AM 8.1 °F -8.4 °F -9.9 °F 44% 29.56 in 10.0 mi North 13.8 mph 20.7 mph N/A   Clear
1:53 AM 7.0 °F -9.1 °F -9.9 °F 46% 29.56 in 10.0 mi North 12.7 mph - N/A   Clear
3:53 AM 6.1 °F -8.7 °F -11.0 °F 45% 29.54 in 10.0 mi North 10.4 mph - N/A   Clear
4:53 AM 5.0 °F -9.1 °F -11.0 °F 48% 29.53 in 10.0 mi North 9.2 mph - N/A   Clear
5:53 AM 3.9 °F -10.4 °F -11.0 °F 50% 29.53 in 10.0 mi North 9.2 mph - N/A   Clear
6:53 AM 3.0 °F -12.5 °F -11.9 °F 50% 29.52 in 10.0 mi North 10.4 mph - N/A   Clear
7:53 AM 3.0 °F -11.5 °F -11.9 °F 50% 29.52 in 10.0 mi North 9.2 mph - N/A   Clear
8:53 AM 1.9 °F -13.8 °F -13.0 °F 50% 29.52 in 10.0 mi North 10.4 mph - N/A   Clear
9:53 AM 1.9 °F -11.8 °F -11.9 °F 52% 29.52 in 10.0 mi North 8.1 mph - N/A   Clear
10:53 AM 1.9 °F -12.9 °F -13.0 °F 50% 29.53 in 9.0 mi North 9.2 mph - N/A   Clear
11:53 AM 3.0 °F -12.5 °F -11.9 °F 50% 29.52 in 10.0 mi North 10.4 mph - N/A   Clear
12:53 PM 3.9 °F -11.3 °F -13.0 °F 46% 29.52 in 10.0 mi North 10.4 mph - N/A   Clear
1:53 PM 3.9 °F -12.2 °F -11.9 °F 48% 29.51 in 10.0 mi North 11.5 mph - N/A   Clear
2:53 PM 3.0 °F -10.5 °F -11.9 °F 50% 29.50 in 10.0 mi North 8.1 mph - N/A   Clear
3:53 PM 3.0 °F -12.5 °F -13.0 °F 47% 29.51 in 10.0 mi North 10.4 mph 17.3 mph N/A   Clear
4:53 PM 1.9 °F -13.8 °F -13.0 °F 50% 29.51 in 10.0 mi North 10.4 mph - N/A   Clear
5:53 PM 1.9 °F -12.9 °F -13.0 °F 50% 29.51 in 10.0 mi North 9.2 mph - N/A   Clear
6:53 PM 1.0 °F -14.0 °F -13.0 °F 52% 29.51 in 10.0 mi NNE 9.2 mph - N/A   Clear
7:53 PM 1.0 °F -14.0 °F -13.0 °F 52% 29.51 in 10.0 mi NNE 9.2 mph - N/A   Clear
8:53 PM -0.0 °F -13.0 °F -13.0 °F 54% 29.52 in 10.0 mi North 6.9 mph - N/A   Clear
9:53 PM -0.0 °F -11.6 °F -13.0 °F 54% 29.52 in 10.0 mi NNE 5.8 mph - N/A   Clear
10:53 PM -0.9 °F - -11.0 °F 62% 29.52 in 10.0 mi Calm Calm - N/A   Clear
11:53 PM -2.9 °F -11.2 °F -9.9 °F 72% 29.52 in 10.0 mi NE 3.5 mph - N/A   Clear